Location: Unspecified
(0.0000°N, 0.0000°E)
Time: 21:25:04
(UTC+00:00)

Kosmos-1429 - Pass Details

Date: 24 February 2024
Orbit: 1466 x 1518 km, 74.0° (Epoch: 21 April)

Event Time Altitude Azimuth Distance (km) Brightness Sun altitude
Rises 19:47:01 0° 320° (NW) 4,648 ? -23.1°
Reaches altitude 10° 19:50:43 10° 307° (NW) 3,665 ? -24.0°
Maximum altitude 19:57:21 23° 258° (WSW) 2,749 ? -25.7°
Drops below altitude 10° 20:03:59 10° 209° (SSW) 3,646 ? -27.3°
Sets 20:07:43 0° 195° (SSW) 4,620 ? -28.2°
